771005 688  2.0+  0.8-    781201 801(21.5+  3.3-)   060123 704  0.5-  0.4-  

771006 878  1.2+  2.4+ Y  781203 801(21.6+  1.9-)   060123 704  1.2+  0.5+  

771006 046  1.3-  0.2+    1991/                     060123 704  2.4+  0.7+  

771006 046  0.1+  0.6+    910915 675  0.0   0.0     060123 704  0.5+  2.3+  

771007 046  0.9-  1.6+    910915 675  0.5+  1.3-    060123 461  0.8-  0.1+  

771007 046  0.6-  2.6+    910917 691  0.9-  0.0     060123 461  0.9-  0.3+  

771007 095  1.2+  1.3+    910917 691  1.7-  0.1+                            

771007 095 (3.0+  0.5-)   910917 691  0.9-  0.3+                            





Separation distances and position angles from principal Nucleus A:



              101P/Chernykh-A                101P/Chernykh-B                    

               From A

Date /UT      R. A. (2000) Decl.     Mag.    R. A. (2000) Decl.     Mag.   Delta   r    Sepa./ P.A.

               h  m  s      o  ,  "   m1      h  m  s      o  ,  "   m1         

                "     o 

2006  2 14   01 53 57.6  +06 52 57   15.9   01 54 56.8  +06 58 16   19.4   2.654  2.391  936.9/ 70.0

2006  2 19   02 02 26.8  +07 46 39   16.0   02 03 25.1  +07 51 50   19.5   2.714  2.399  920.9/ 70.3

2006  2 24   02 11 05.7  +08 39 46   16.0   02 12 03.2  +08 44 48   19.5   2.773  2.408  905.3/ 70.5

2006  3  1   02 19 53.7  +09 32 05   16.1   02 20 50.5  +09 36 57   19.6   2.831  2.418  889.9/ 70.8

2006  3  6   02 28 50.0  +10 23 23   16.2   02 29 46.2  +10 28 06   19.7   2.889  2.428  874.9/ 71.1

2006  3 11   02 37 53.9  +11 13 31   16.2   02 38 49.3  +11 18 03   19.7   2.946  2.439  860.0/ 71.5

2006  3 16   02 47 04.5  +12 02 16   16.3   02 47 59.3  +12 06 37   19.8   3.003  2.451  845.3/ 71.9

2006  3 21   02 56 21.2  +12 49 30   16.3   02 57 15.4  +12 53 41   19.8   3.058  2.463  830.8/ 72.4

2006  3 26   03 05 43.7  +13 35 05   16.4   03 06 37.2  +13 39 05   19.9   3.113  2.476  816.5/ 72.9

2006  3 31   03 15 11.3  +14 18 54   16.5   03 16 04.2  +14 22 43   20.0   3.166  2.490  802.3/ 73.4

2006  4  5   03 24 43.4  +15 00 48   16.5   03 25 35.7  +15 04 25   20.0   3.218  2.504  788.3/ 74.0

2006  4 10   03 34 19.2  +15 40 40   16.6   03 35 10.9  +15 44 05   20.1   3.269  2.519  774.3/ 74.6

2006  4 15   03 43 58.1  +16 18 23   16.6   03 44 49.2  +16 21 37   20.1   3.318  2.534  760.6/ 75.2

2006  4 20   03 53 39.6  +16 53 55   16.7   03 54 30.1  +16 56 57   20.2   3.366  2.550  747.0/ 75.9

2006  4 25   04 03 23.1  +17 27 10   16.8   04 04 13.0  +17 30 00   20.3   3.412  2.566  733.5/ 76.6

2006  4 30   04 13 08.1  +17 58 04   16.8   04 13 57.4  +18 00 43   20.3   3.457  2.583  720.1/ 77.3

2006  5  5   04 22 53.9  +18 26 35   16.9   04 23 42.5  +18 29 02   20.4   3.500  2.601  706.9/ 78.0

2006  5 10   04 32 39.6  +18 52 39   16.9   04 33 27.6  +18 54 55   20.4   3.541  2.619  693.9/ 78.7

2006  5 15   04 42 24.7  +19 16 17   17.0   04 43 12.0  +19 18 20   20.5   3.580  2.637  681.1/ 79.5

2006  5 20   04 52 08.5  +19 37 26   17.0   04 52 55.2  +19 39 19   20.5   3.617  2.656  668.5/ 80.2

2006  5 25   05 01 50.7  +19 56 08   17.1   05 02 36.6  +19 57 50   20.6   3.652  2.675  656.0/ 81.0

2006  5 30   05 11 30.4  +20 12 23   17.1   05 12 15.7  +20 13 54   20.6   3.685  2.695  643.7/ 81.8

2006  6  4   05 21 06.9  +20 26 11   17.2   05 21 51.5  +20 27 32   20.7   3.715  2.715  631.7/ 82.6

2006  6  9   05 30 39.5  +20 37 35   17.2   05 31 23.4  +20 38 46   20.7   3.743  2.735  619.9/ 83.4

2006  6 14   05 40 07.5  +20 46 38   17.3   05 40 50.7  +20 47 40   20.8   3.769  2.756  608.3/ 84.2

2006  6 19   05 49 30.5  +20 53 24   17.3   05 50 13.0  +20 54 16   20.8   3.792  2.777  597.0/ 84.9

2006  6 24   05 58 48.0  +20 57 55   17.4   05 59 29.7  +20 58 38   20.9   3.813  2.799  586.0/ 85.7

2006  6 29   06 07 59.1  +21 00 16   17.4   06 08 40.1  +21 00 51   20.9   3.830  2.821  575.2/ 86.5

2006  7  4   06 17 03.3  +21 00 31   17.5   06 17 43.6  +21 00 59   21.0   3.846  2.843  564.7/ 87.2

2006  7  9   06 25 59.7  +20 58 47   17.5   06 26 39.3  +20 59 07   21.0   3.858  2.865  554.5/ 88.0

2006  7 14   06 34 48.1  +20 55 10   17.5   06 35 26.9  +20 55 22   21.1   3.867  2.888  544.6/ 88.7

2006  7 19   06 43 27.8  +20 49 44   17.6   06 44 06.0  +20 49 50   21.1   3.874  2.911  535.0/ 89.4

2006  7 24   06 51 58.4  +20 42 37   17.6   06 52 35.9  +20 42 36   21.1   3.877  2.934  525.8/ 90.0

2006  7 29   07 00 19.2  +20 33 55   17.7   07 00 56.0  +20 33 49   21.2   3.878  2.958  516.9/ 90.7

2006  8  3   07 08 29.5  +20 23 46   17.7   07 09 05.7  +20 23 35   21.2   3.875  2.981  508.4/ 91.3

2006  8  8   07 16 28.8  +20 12 18   17.7   07 17 04.3  +20 12 02   21.2   3.869  3.005  500.2/ 91.9

2006  8 13   07 24 16.7  +19 59 39   17.7   07 24 51.6  +19 59 17   21.3   3.860  3.029  492.4/ 92.5

2006  8 18   07 31 52.6  +19 45 56   17.8   07 32 26.9  +19 45 30   21.3   3.848  3.054  485.1/ 93.0

2006  8 23   07 39 16.0  +19 31 18   17.8   07 39 49.7  +19 30 48   21.3   3.833  3.078  478.2/ 93.6

2006  8 28   07 46 26.1  +19 15 53   17.8   07 46 59.3  +19 15 19   21.3   3.815  3.103  471.7/ 94.1

2006  9  2   07 53 22.2  +18 59 51   17.8   07 53 55.0  +18 59 14   21.4   3.794  3.128  465.7/ 94.5

2006  9  7   08 00 03.8  +18 43 22   17.9   08 00 36.1  +18 42 42   21.4   3.770  3.153  460.2/ 95.0

2006  9 12   08 06 30.4  +18 26 35   17.9   08 07 02.3  +18 25 52   21.4   3.743  3.178  455.3/ 95.4

2006  9 17   08 12 41.3  +18 09 38   17.9   08 13 12.7  +18 08 53   21.4   3.713  3.203  450.9/ 95.7

2006  9 22   08 18 35.5  +17 52 43   17.9   08 19 06.7  +17 51 55   21.4   3.680  3.228  447.1/ 96.1

2006  9 27   08 24 12.3  +17 35 59   17.9   08 24 43.1  +17 35 09   21.4   3.645  3.254  443.9/ 96.4

2006 10  2   08 29 30.7  +17 19 38   17.9   08 30 01.3  +17 18 46   21.5   3.607  3.279  441.3/ 96.7

2006 10  7   08 34 30.0  +17 03 50   18.0   08 35 00.4  +17 02 57   21.5   3.568  3.305  439.5/ 97.0



NAKANO

         **** Don't distribute anyone except personal use only ****

                (C) Copyright 2006 OAA/ComputingSection

write mail from CFAD0::NAKANO on 2006-03-01 01:58:59(JST).

 



 101P/Chernykh - A

Epoch 2005 Dec. 16.0 TT = JDT 2453720.5  

T 2005 Dec. 25.30616 TT                                 Nakano

q   2.3505230            (2000.0)            P               Q

n   0.07078970     Peri.  263.15358     +0.83155263     -0.55132409

a   5.7874776      Node   130.27980     +0.53815537     +0.76958408

e   0.5938605      Incl.    5.07928     +0.13751011     +0.32215228

P  13.92

From 733 observations 1977-2006, mean residual 0".87.

   Nongravitational parameters Y1 = +0.81 +/- 0.02, Y2 = +0.1024 +/- 0.0002, 

   Y3 = -0.66 +/- 0.01, sublimating molecule = CO (or N2) using Yabushita's

   theory (MN 283, 347).

Residuals in seconds of arc 

1977/                     920306 691 (3.4-  3.0-)   051103 H06 (0.3+  2.3+) 

770819 095 (5.0-  0.8+)   920306 691 (4.0-  3.5-)   051103 H06  0.2+  2.0+  

770819 095 (5.1-  1.3+)   920924 693(39.1+  7.5-)   051103 H06  0.4+  1.2+  

770820 095 (4.7-  0.8+)   920924 693(39.8+  9.7-)   051103 H06  0.1-  0.9+  

770822 095 (4.1-  2.6+)   920925 693(38.1+  7.3-)   051103 367  0.1+  0.4-  

770823 095  1.5-  1.1+    920925 693(37.8+  7.5-)   051103 367  0.3-  0.0   

770824 095  2.0-  1.9+    920925 693(38.5+  7.4-)   051103 367  0.1+  0.1+  

770824 095  1.0-  0.9+    921025 693  0.8-  0.1+    051104 939  0.5-  0.2+  

770825 095  0.4-  1.2+    921025 693  1.3-  0.0     051104 939  0.1-  0.0   

770827 083  1.4-  2.4+    921025 693  1.4-  0.5-    051104 939  0.3+  0.0   

770827 083 (1.7+  4.8+)   921026 693  0.9-  0.1+    051105 349  0.8+  0.2-  

770901 809  2.6-  1.1+    921026 693  0.8-  0.2+    051105 349  0.9+  0.1-  

770901 809  1.4-  1.4+    921026 693  0.8-  0.2+    051105 232  1.7-  0.8-  

770902 809  0.9-  1.0+    921202 691  1.0-  1.0-    051105 232  0.2-  0.7-  

770902 323  1.2+  0.6-    921202 691  0.5-  0.6-    051105 J76  0.3+  0.1-  

770903 809  0.3-  1.0+    921202 691  1.0-  0.5-    051105 J76  0.1-  0.5-  

770903 494 (3.3-  0.5+)   1993/                     051105 J76  0.1+  0.4-  

770904 414 (4.0-  0.1-)   930123 691  0.4-  0.3+    051105 939  0.3+  0.2+  

770904 323  2.7-  0.1+    930123 691  0.4+  0.9+    051105 939  0.2+  0.1+  

770904 372 (3.0-  1.4+)   930123 691  0.5-  0.2+    051105 939  0.1-  0.2+  

770904 372  1.8-  0.1+    930124 691  0.7-  0.2+    051106 442  1.3-  0.3-  

770905 885  0.3+  0.7-    930124 691  0.5-  0.2-    051106 A10  0.4-  0.0   

770905 885  0.7+  1.0-    930326 691  0.4+  0.3+    051107 J76  0.1+  0.0   

770905 885  0.1+  0.1-    930326 691  0.5+  1.5+    051107 J76  0.2+  0.1+  

770905 323  1.2-  1.0-    930326 691  0.2-  0.9+    051107 J76  0.3+  0.2-  

770906 885  0.3-  1.2+    930326 691  0.9+  1.1+    051114 I77  1.8+  0.4-  

770906 380  1.6-  1.5+    930420 691  0.1+  2.0+    051114 I77  0.5+  0.2+  

770906 380 (3.2-  2.1+)   930420 691 (1.2+  2.3+)   051115 I77  1.2-  0.7-  

770906 095  1.6-  0.1-    930420 691 (0.8+  2.4+)   051115 213  0.0   0.5-  

770906 095  1.0-  0.2-    2005/                     051115 213  0.4-  0.2-  

770906 046  1.7-  0.7-    050710 673  1.0+  0.0     051118 699  0.2+  1.2+  

770907 414  2.1-  0.6+    050710 673  0.9+  0.5+    051118 699  0.3+  1.9+  

770907 414  1.9-  0.7+    050710 673  1.1+  0.7+    051118 699  0.3-  0.7+  

770907 020  1.7-  0.5-    050711 673  0.2+  0.4+    051118 699  0.1+  1.1+  

770907 020  0.6-  1.0-    050711 673  0.8+  0.4+    051121 352  0.2-  0.5-  

770908 801  1.6-  0.8+    050711 673  1.0+  0.5+    051121 352  1.3+  0.4-  

770908 688  0.9-  2.2-    050711 673  0.8+  0.2+    051121 352  0.1-  0.6+  

770908 414  2.1-  0.9-    050711 673  1.3+  0.4+    051121 442  0.7-  0.9+  

770908 076  0.9-  1.4-    050711 673  1.3+  0.6+    051121 442  1.4-  1.0+  

770908 076  1.5-  0.5-    050728 213  0.1+  1.1-    051121 A32  0.2+  0.3+  

770908 095  1.3-  0.7+    050728 213  0.2-  0.9-    051121 A32  0.0   0.4+  

